FW0434 Weather Reports


time (UTC)temp
F
wind
direction
speed
knots
gust
knots
rain 1hr
in
rain 24hr
in
rain mn
in
humidity
%
barometer
mb
20260504081536 58 234 16.5 21.7 0.00 0.00 0.00 49 994.8
20260504044602 54 229 5.2 10.4 0.00 0.00 0.00 52 998.9
20260504043055 53 247 4.3 9.6 0.00 0.00 0.00 53 999.2
20260504041600 53 257 5.2 9.6 0.00 0.00 0.00 52 999.5
20260504034503 55 255 5.2 9.6 0.00 0.00 0.00 50 1000.2
20260504033016 55 276 3.5 7.0 0.00 0.00 0.00 49 1000.5
20260504031516 55 234 2.6 7.0 0.00 0.00 0.00 49 1000.8
20260504030036 55 190 3.5 7.0 0.00 0.00 0.00 48 1001.2
20260504024545 55 197 2.6 6.1 0.00 0.01 0.00 50 1001.4
20260504023056 55 261 3.5 6.1 0.00 0.01 0.00 50 1001.5
20260504021518 56 283 3.5 6.1 0.00 0.01 0.00 48 1001.7
20260504020035 57 256 2.6 6.1 0.00 0.01 0.00 46 1001.9
20260504014551 59 231 1.7 5.2 0.00 0.01 0.00 43 1002.1
20260504013052 61 238 2.6 6.1 0.00 0.01 0.00 40 1002.4
20260504011559 63 229 0.9 6.1 0.00 0.01 0.00 38 1002.6
20260504004520 65 238 4.3 7.0 0.00 0.01 0.00 35 1002.9
20260504003024 67 261 4.3 7.8 0.00 0.01 0.00 33 1003.1
20260504001542 67 254 5.2 8.7 0.00 0.01 0.00 32 1003.4
20260504000038 68 266 7.0 12.2 0.00 0.01 0.00 31 1003.6
20260503234550 68 259 5.2 9.6 0.00 0.01 0.00 32 1003.7
20260503233052 68 276 6.1 10.4 0.00 0.01 0.00 32 1003.8
20260503231507 69 278 4.3 13.0 0.00 0.01 0.00 31 1003.8
20260503230004 70 257 5.2 10.4 0.00 0.01 0.00 29 1004.1
20260503224505 69 273 5.2 9.6 0.00 0.01 0.00 29 1004.2
20260503223005 69 253 6.1 12.2 0.00 0.01 0.00 29 1004.3
20260503221507 69 263 7.0 10.4 0.00 0.01 0.00 28 1004.5
20260503220038 69 282 3.5 10.4 0.00 0.01 0.00 31 1004.8
20260503214529 69 260 4.3 11.3 0.00 0.01 0.00 32 1005.0
20260503213045 69 288 4.3 13.9 0.00 0.01 0.00 30 1005.4
20260503211542 68 289 7.0 13.0 0.00 0.01 0.00 31 1005.6
20260503204558 67 346 5.2 15.6 0.00 0.01 0.00 35 1006.1
20260503203104 67 296 3.5 10.4 0.00 0.01 0.00 36 1006.3
20260503201501 66 293 5.2 9.6 0.00 0.01 0.00 36 1006.7
20260503200023 66 319 6.1 14.8 0.00 0.01 0.00 35 1007.0
20260503194542 66 300 6.1 11.3 0.00 0.01 0.00 36 1007.1
20260503193053 66 304 6.1 11.3 0.00 0.01 0.00 39 1007.4
20260503191557 65 294 7.0 12.2 0.00 0.01 0.00 38 1007.7
20260503190003 64 329 5.2 12.2 0.00 0.01 0.00 36 1007.8
20260503184506 64 306 7.0 13.0 0.00 0.01 0.00 36 1007.9
20260503183011 64 344 6.1 12.2 0.00 0.01 0.00 38 1008.4
20260503181515 63 5 7.8 12.2 0.00 0.01 0.00 39 1008.7
20260503180030 63 306 7.0 14.8 0.00 0.01 0.00 39 1008.7
20260503174534 62 289 7.0 13.9 0.00 0.01 0.00 43 1008.9
20260503173036 62 322 7.8 13.9 0.00 0.01 0.00 41 1009.2
20260503171542 62 339 10.4 16.5 0.00 0.01 0.00 42 1009.2